Grove City, OH

6:05 PM EDT on September 28, 2016 (GMT -0400)
Bolton

Weather History for KTZR - September, 2013

Change the Weather History Date:

Monday, September 2, 2013

  Actual Average Record
Temperature  
Mean Temperature 74 °F -  
Max Temperature 82 °F 79 °F 91 °F (2010)
Min Temperature 66 °F 58 °F 33 °F (2008)
Cooling Degree Days 9    
Growing Degree Days 24 (Base 50)    
Moisture  
Dew Point 67 °F    
Average Humidity 89    
Maximum Humidity 100    
Minimum Humidity 65    
Precipitation  
Precipitation 0.00 in - - ()
Sea Level Pressure  
Sea Level Pressure 29.84 in    
Wind  
Wind Speed 3 mph (West)    
Max Wind Speed 14 mph    
Max Gust Speed 23 mph    
Visibility 7 miles    
Events      
Averages and records for this station are not official NWS values.
T = Trace of Precipitation, MM = Missing Value Source: NWS Daily Summary

Daily Weather History Graph

Daily Weather History Graph

Search for Another Location

Airport or City:

Trip Planner

Search our weather history database for the weather conditions in past years. The results will help you decide how hot, cold, wet, or windy it might be!

Date:

Astronomy

Sep. 02, 2013 Rise Set
Actual Time 7:01 AM EDT 8:01 PM EDT
Civil Twilight 6:33 AM EDT 8:29 PM EDT
Nautical Twilight 6:00 AM EDT 9:02 PM EDT
Astronomical Twilight 5:26 AM EDT 9:36 PM EDT
Moon 4:17 AM EDT (9/2) 6:14 PM EDT (9/2)
Length of Visible Light 13h 55m
Length of Day
13h 00m
Waning Crescent, 8% of the Moon is Illuminated
Sep 2
Waning Crescent
Sep 5
New
Sep 12
First Quarter
Sep 19
Full
Sep 26
Last Quarter

Hourly Weather History & Observations

Time (EDT) Temp. Heat Index Dew Point Humidity Pressure Visibility Wind Dir Wind Speed Gust Speed Precip Events Conditions
12:15 AM 70.2 °F - 69.1 °F 96% 29.82 in 10.0 mi Calm Calm - N/A   Clear
12:35 AM 69.8 °F - 68.9 °F 97% 29.81 in 10.0 mi SW 3.5 mph - N/A   Clear
12:55 AM 69.3 °F - 68.9 °F 99% 29.82 in 10.0 mi Calm Calm - N/A   Clear
1:15 AM 68.4 °F - 68.2 °F 99% 29.81 in 7.0 mi SSW 3.5 mph - N/A   Clear
1:35 AM 68.0 °F - 68.0 °F 100% 29.81 in 7.0 mi Calm Calm - N/A   Scattered Clouds
1:55 AM 67.6 °F - 67.6 °F 100% 29.81 in 5.0 mi SSW 4.6 mph - N/A   Scattered Clouds
2:15 AM 68.0 °F - 68.0 °F 100% 29.81 in 5.0 mi SW 3.5 mph - N/A   Clear
2:35 AM 68.0 °F - 68.0 °F 100% 29.79 in 4.0 mi Calm Calm - N/A   Clear
2:55 AM 68.2 °F - 68.2 °F 100% 29.79 in 5.0 mi Calm Calm - N/A   Clear
3:15 AM 69.4 °F - 69.4 °F 100% 29.80 in 5.0 mi Calm Calm - N/A   Clear
3:35 AM 68.9 °F - 68.9 °F 100% 29.81 in 4.0 mi WSW 3.5 mph - N/A   Clear
3:55 AM 69.8 °F - 69.8 °F 100% 29.80 in 5.0 mi SW 3.5 mph - N/A   Clear
4:15 AM 69.3 °F - 69.3 °F 100% 29.81 in 4.0 mi Calm Calm - N/A   Clear
4:35 AM 70.2 °F - 70.0 °F 99% 29.81 in 5.0 mi West 3.5 mph - N/A   Mostly Cloudy
4:55 AM 69.6 °F - 69.6 °F 100% 29.82 in 4.0 mi West 3.5 mph - N/A   Overcast
5:15 AM 69.8 °F - 69.8 °F 100% 29.81 in 4.0 mi Calm Calm - N/A   Mostly Cloudy
5:35 AM 68.9 °F - 68.9 °F 100% 29.81 in 3.0 mi Calm Calm - N/A   Scattered Clouds
5:55 AM 68.5 °F - 68.5 °F 100% 29.82 in 3.0 mi WSW 3.5 mph - N/A   Clear
6:15 AM 68.4 °F - 68.4 °F 100% 29.82 in 2.5 mi WSW 4.6 mph - N/A   Scattered Clouds
6:35 AM 68.4 °F - 68.4 °F 100% 29.81 in 2.5 mi South 3.5 mph - N/A   Mostly Cloudy
6:55 AM 66.9 °F - 66.9 °F 100% 29.82 in 0.8 mi WNW 3.5 mph - N/A   Overcast
7:15 AM 68.7 °F - 68.7 °F 100% 29.83 in 1.8 mi West 3.5 mph - N/A   Overcast
7:26 AM 69.8 °F - 69.8 °F 100% 29.83 in 2.0 mi Calm Calm - N/A   Mostly Cloudy
7:51 AM 69.8 °F - 69.8 °F 100% 29.84 in 2.5 mi Calm Calm - N/A   Mostly Cloudy
8:50 AM 71.6 °F - 71.6 °F 100% 29.84 in 5.0 mi West 4.6 mph - N/A   Clear
9:50 AM 73.4 °F - 69.8 °F 88% 29.85 in 7.0 mi WSW 6.9 mph - N/A   Scattered Clouds
10:50 AM 77.0 °F - 71.6 °F 83% 29.86 in 7.0 mi WSW 4.6 mph - N/A   Scattered Clouds
11:58 AM 78.8 °F - 71.6 °F 78% 29.86 in 10.0 mi WSW 9.2 mph - N/A   Overcast
12:50 PM 80.6 °F 84.6 °F 71.6 °F 74% 29.85 in 10.0 mi West 9.2 mph - N/A   Scattered Clouds
1:50 PM 82.4 °F 87.2 °F 71.6 °F 70% 29.85 in 10.0 mi West 11.5 mph 23.0 mph N/A   Mostly Cloudy
2:55 PM 80.6 °F 84.6 °F 71.6 °F 74% 29.83 in 10.0 mi NW 13.8 mph 20.7 mph N/A   Scattered Clouds
7:35 PM 77.5 °F - 64.9 °F 65% 29.84 in 10.0 mi NNW 10.4 mph 16.1 mph N/A   Mostly Cloudy
7:55 PM 76.6 °F - 64.2 °F 65% 29.84 in 10.0 mi NNW 10.4 mph - N/A   Mostly Cloudy
8:15 PM 75.9 °F - 63.5 °F 65% 29.84 in 10.0 mi NNW 8.1 mph - N/A   Scattered Clouds
8:35 PM 73.9 °F - 63.5 °F 70% 29.85 in 10.0 mi NW 5.8 mph - N/A   Scattered Clouds
8:55 PM 72.1 °F - 63.9 °F 75% 29.85 in 10.0 mi NW 5.8 mph - N/A   Clear
9:15 PM 71.6 °F - 63.5 °F 76% 29.86 in 10.0 mi NW 4.6 mph - N/A   Clear
9:35 PM 70.7 °F - 63.5 °F 78% 29.87 in 10.0 mi WNW 3.5 mph - N/A   Clear
9:55 PM 68.7 °F - 63.1 °F 82% 29.88 in 10.0 mi NW 5.8 mph - N/A   Clear
10:15 PM 68.5 °F - 62.8 °F 82% 29.88 in 10.0 mi NW 5.8 mph - N/A   Clear
10:35 PM 68.9 °F - 61.9 °F 78% 29.89 in 10.0 mi NNW 8.1 mph - N/A   Clear
10:55 PM 68.7 °F - 60.6 °F 75% 29.89 in 10.0 mi NNW 6.9 mph - N/A   Clear
11:15 PM 68.7 °F - 59.2 °F 72% 29.90 in 10.0 mi NNW 9.2 mph - N/A   Clear
11:35 PM 68.4 °F - 59.0 °F 72% 29.90 in 10.0 mi NNW 5.8 mph - N/A   Clear
11:55 PM 67.6 °F - 58.1 °F 71% 29.91 in 10.0 mi North 8.1 mph - N/A   Clear